User: anonymous   Login
Location: Unspecified
(0.0000°N, 0.0000°E)
Time: 08:01:05
(UTC+00:00)
Language:

Explorer 7 - Orbit

View from above orbital plane
View from above orbital plane
View from above satellite
View from above satellite

Ground track
Ground track

The orbit data is extracted from the following two-line orbital elements,

1 00022U 59009A   23038.86339649  .00006628  00000-0  47386-3 0  9994
2 00022  50.2797 244.8823 0129740 353.4284   6.4959 14.99019637614912
Epoch (UTC): 07 February 2023 20:43:17
Eccentricity: 0.0129740
inclination: 50.2797°
perigee height: 480 km
apogee height: 660 km
right ascension of ascending node: 244.8823°
argument of perigee: 353.4284°
revolutions per day: 14.99019637
mean anomaly at epoch: 6.4959°
orbit number at epoch: 61491

The dashed part of the orbit path shows where the satellite is in the earth's shadow,  

DLR